Voltar ao catálogo

SL-8 R/B

AtivoPO
NORAD 7594·ROCKET BODY·🇷🇺 Russia

Lançado Dec 26, 1974 de Plesetsk Cosmodrome

Loading…

Próximas Passagens (próximas 24 horas)

TLE

AtualizadoSource: Space-Track

Época: Sep 14, 2026, 13:55 UTC

1  7594U 74105B   26257.58012876 -.00000001  00000-0 -16068-4 0  9999
2  7594  82.9446 291.6753 0015313 230.1292 294.3338 13.79252857601092

Acompanhe SL-8 R/B em tempo real com AllMySat

Download on the App Store